Satellite: UO-22
Catalog number: 21575
Epoch time:      04337.83580550
Element set:     269
Inclination:       98.2180 deg
RA of node:       304.8833 deg
Eccentricity:    0.0006701
Arg of perigee:   328.1255 deg
Mean anomaly:      31.9531 deg
Mean motion:   14.39441341 rev/day
Decay rate:       1.45e-06 rev/day^2
Epoch rev:           70225
Checksum:              281

Satellite: KO-23
Catalog number: 22077
Epoch time:      04337.37559920
Element set:     328
Inclination:       66.0868 deg
RA of node:       198.6227 deg
Eccentricity:    0.0012512
Arg of perigee:   302.6659 deg
Mean anomaly:      57.3157 deg
Mean motion:   12.86427726 rev/day
Decay rate:       -3.7e-07 rev/day^2
Epoch rev:           57827
Checksum:              328

Satellite: AO-27
Catalog number: 22825
Epoch time:      04337.87797366
Element set:       3
Inclination:       98.2448 deg
RA of node:       337.8669 deg
Eccentricity:    0.0009318
Arg of perigee:   121.6887 deg
Mean anomaly:     238.5183 deg
Mean motion:   14.29101591 rev/day
Decay rate:       1.29e-06 rev/day^2
Epoch rev:           58318
Checksum:              342

Satellite: IO-26
Catalog number: 22826
Epoch time:      04337.03242057
Element set:     671
Inclination:       98.2411 deg
RA of node:       338.3564 deg
Eccentricity:    0.0009601
Arg of perigee:   120.9061 deg
Mean anomaly:     239.3074 deg
Mean motion:   14.29339378 rev/day
Decay rate:       1.06e-06 rev/day^2
Epoch rev:           58312
Checksum:              287

Satellite: KO-25
Catalog number: 22828
Epoch time:      04337.00310611
Element set:     935
Inclination:       98.2349 deg
RA of node:       338.5551 deg
Eccentricity:    0.0010980
Arg of perigee:   102.8012 deg
Mean anomaly:     257.4416 deg
Mean motion:   14.29656272 rev/day
Decay rate:       -5.7e-07 rev/day^2
Epoch rev:           55134
Checksum:              287

Satellite: TO-31
Catalog number: 25396
Epoch time:      04336.84915854
Element set:     116
Inclination:       98.5573 deg
RA of node:        43.7785 deg
Eccentricity:    0.0003175
Arg of perigee:    51.7638 deg
Mean anomaly:     308.3827 deg
Mean motion:   14.23646543 rev/day
Decay rate:       -4.3e-07 rev/day^2
Epoch rev:           33233
Checksum:              316

Satellite: GO-32
Catalog number: 25397
Epoch time:      04337.83622801
Element set:     615
Inclination:       98.5482 deg
RA of node:        42.6220 deg
Eccentricity:    0.0001855
Arg of perigee:    72.4807 deg
Mean anomaly:     287.6547 deg
Mean motion:   14.23061421 rev/day
Decay rate:       -6.2e-07 rev/day^2
Epoch rev:           33240
Checksum:              284

Satellite: UO-36
Catalog number: 25693
Epoch time:      04337.84189749
Element set:     696
Inclination:       64.5566 deg
RA of node:       166.6678 deg
Eccentricity:    0.0042273
Arg of perigee:   236.8379 deg
Mean anomaly:     122.8636 deg
Mean motion:   14.78430681 rev/day
Decay rate:       3.08e-06 rev/day^2
Epoch rev:           30279
Checksum:              362

Satellite: SO-41
Catalog number: 26545
Epoch time:      04336.87555424
Element set:     941
Inclination:       64.5566 deg
RA of node:       185.3724 deg
Eccentricity:    0.0028573
Arg of perigee:   339.8632 deg
Mean anomaly:      20.1298 deg
Mean motion:   14.79949577 rev/day
Decay rate:       4.52e-06 rev/day^2
Epoch rev:           22572
Checksum:              341

Satellite: MO-46
Catalog number: 26548
Epoch time:      04336.96347306
Element set:      43
Inclination:       64.5553 deg
RA of node:       170.1702 deg
Eccentricity:    0.0027792
Arg of perigee:   326.2683 deg
Mean anomaly:      33.6659 deg
Mean motion:   14.82530893 rev/day
Decay rate:       8.33e-06 rev/day^2
Epoch rev:           22604
Checksum:              312

Satellite: SO-42
Catalog number: 26549
Epoch time:      04337.79840194
Element set:       0
Inclination:       64.5563 deg
RA of node:       190.0902 deg
Eccentricity:    0.0028528
Arg of perigee:   349.4266 deg
Mean anomaly:      10.6233 deg
Mean motion:   14.78839334 rev/day
Decay rate:       5.53e-06 rev/day^2
Epoch rev:           22571
Checksum:              305

Satellite: NO-44
Catalog number: 26931
Epoch time:      04337.83779713
Element set:     912
Inclination:       67.0549 deg
RA of node:        13.4823 deg
Eccentricity:    0.0007297
Arg of perigee:   269.4775 deg
Mean anomaly:      90.5524 deg
Mean motion:   14.29345300 rev/day
Decay rate:       1.75e-06 rev/day^2
Epoch rev:           16570
Checksum:              318

Satellite: AO-49
Catalog number: 27605
Epoch time:      04337.11171513
Element set:     599
Inclination:       64.5598 deg
RA of node:        14.5014 deg
Eccentricity:    0.0085352
Arg of perigee:   278.6448 deg
Mean anomaly:      80.5005 deg
Mean motion:   14.71991073 rev/day
Decay rate:       5.48e-06 rev/day^2
Epoch rev:           10484
Checksum:              311

Satellite: SO-50
Catalog number: 27607
Epoch time:      04337.61619376
Element set:     582
Inclination:       64.5602 deg
RA of node:        17.5178 deg
Eccentricity:    0.0086275
Arg of perigee:   277.4381 deg
Mean anomaly:      81.6926 deg
Mean motion:   14.70814673 rev/day
Decay rate:       6.80e-06 rev/day^2
Epoch rev:           10482
Checksum:              322

